Content
SEND FEEDBACK

Daily
Averages
Monthly
Summary
United States of America

CHELSEA, MICHIGAN


Home > North America > United States > Michigan
Elevation: 900 feet     Latitude: 42 19N     Longitude: 084 01W

WEATHER
 
SELECT A DAY
Number of Records: 208,958;   Date Range: 1/1/95 - 12/21/14
 
SHARE

PRINT THIS DATA

[ ← Previous Day ]
WEATHER ALMANAC - MAY 1, 2013
[ Next Day → ]
[ °C ]   °F
Weather ElementAverageHighLow
Temperature58.2 °F81 °F (2:53 pm)44.6 °F (3:48 am)
Dewpoint49.4 °F55.9 °F (11:53 am)44.1 °F (6:53 am)
Humidity77.1 %100 % (3:15 am)38 % (4:53 pm)
Barometer30.16 in30.24 in (10:53 pm)30.09 in (1:53 am)
Wind Speed3 mph12.7 mph (3:53 pm)
Wind Gust16.1 mph (4:53 pm)
Weather ElementAverage
Visibility5.7 mi
Wind DirectionNE (48.6 °)

Weather ElementTotal
Precipitation---
Heating Degree Days2.2 (Base 65)
Growing Degree Days12.8 (Base 50)
Averaged from 35 records on May 1, 2013
WEATHER CONDITIONS BREAKOUT
WIND DIRECTION BREAKOUT
WEATHER BY HOUR - MAY 1, 2013
[ °C ]   °F
Local TimeTemperatureDewpointHumidityBarometerVisibilityWind DirectionWind SpeedGust SpeedPrecipitationEventsConditions
1:53 AM51.1 °F48.9 °F92 %30.09 in6.0 miCalmClear
2:53 AM48.9 °F46.9 °F93 %30.09 in3.0 miCalmClear
3:00 AM48.2 °F46.4 °F93 %30.09 in1.5 miCalmClear
3:04 AM46.4 °F44.6 °F93 %30.09 in0.8 miCalmClear
3:15 AM46.4 °F46.4 °F100 %30.09 in1.5 miCalmClear
3:19 AM48.2 °F46.4 °F93 %30.09 in4.0 miCalmClear
3:33 AM48.2 °F46.4 °F93 %30.10 in1.0 miCalmClear
3:40 AM46.4 °F44.6 °F93 %30.10 in0.5 miCalmFogFog
3:46 AM46.4 °F44.6 °F93 %30.10 in1.8 miCalmClear
3:48 AM44.6 °F44.6 °F100 %30.10 in3.0 miCalmClear
3:53 AM48.0 °F46.0 °F93 %30.10 in4.0 miCalmClear
4:53 AM46.9 °F45.0 °F93 %30.11 in4.0 miCalmClear
5:53 AM46.0 °F45.0 °F96 %30.13 in2.5 miCalmClear
6:02 AM46.4 °F44.6 °F93 %30.13 in3.0 miCalmClear
6:32 AM44.6 °F44.6 °F100 %30.14 in1.8 miCalmClear
6:34 AM44.6 °F44.6 °F100 %30.14 in0.8 miCalmClear
6:51 AM46.4 °F44.6 °F93 %30.15 in1.5 miCalmClear
6:53 AM46.0 °F44.1 °F93 %30.15 in2.5 miCalmClear
7:00 AM46.4 °F44.6 °F93 %30.16 in3.0 miCalmClear
7:53 AM54.0 °F52.0 °F93 %30.19 in4.0 miCalmClear
8:53 AM61.0 °F54.0 °F78 %30.20 in9.0 miVariable3.5 mphClear
10:53 AM71.1 °F55.0 °F57 %30.21 in10.0 miSSE (160°)5.8 mphClear
11:53 AM75.0 °F55.9 °F51 %30.20 in10.0 miSouth (180°)4.6 mphClear
12:53 PM77.0 °F55.9 °F48 %30.20 in10.0 miVariable5.8 mphClear
1:53 PM80.1 °F55.9 °F43 %30.19 in10.0 miESE (110°)6.9 mphClear
2:53 PM81.0 °F55.9 °F42 %30.19 in10.0 miSE (130°)10.4 mphClear
3:53 PM80.1 °F54.0 °F40 %30.20 in10.0 miSSE (160°)12.7 mphClear
4:53 PM81.0 °F53.1 °F38 %30.20 in10.0 miSE (140°)11.5 mph16.1 mphClear
5:53 PM80.1 °F53.1 °F39 %30.20 in10.0 miSSE (150°)8.1 mphClear
6:53 PM78.1 °F53.1 °F42 %30.20 in10.0 miESE (120°)10.4 mphClear
7:53 PM75.0 °F53.1 °F46 %30.20 in10.0 miSE (130°)9.2 mphClear
8:53 PM69.1 °F55.0 °F61 %30.21 in10.0 miSE (130°)6.9 mphClear
9:53 PM64.9 °F55.0 °F70 %30.22 in10.0 miSE (140°)5.8 mphClear
10:53 PM63.0 °F54.0 °F72 %30.24 in10.0 miSSE (150°)3.5 mphClear
11:53 PM57.0 °F52.0 °F83 %30.23 in10.0 miCalmClear
Hourly data recorded from KARB, located miles away from Chelsea, Michigan







STORIES FROM OUR PARTNERS